Location: Ottawa
(45.4167°N, 75.7000°W)
Time: 00:47:02
(UTC-04:00)

PCSat - Visible Passes

Search period start: 26 September 2018 00:00
Search period end: 06 October 2018 00:00
Orbit: 784 x 795 km, 67.1° (Epoch: 24 September)

Date Brightness Start Highest point End Pass type
(mag) Time Alt. Az. Time Alt. Az. Time Alt. Az.
26 Sep 12.3 02:11:17 13° N 02:11:17 13° N 02:12:11 10° N visible
27 Sep 12.5 01:41:07 11° N 01:41:07 11° N 01:41:28 10° NNE visible
28 Sep 12.0 06:20:10 10° N 06:23:39 17° NE 06:27:07 10° ENE visible
29 Sep 12.2 05:49:34 10° N 05:52:23 14° NNE 05:55:11 10° ENE visible
30 Sep 12.3 05:19:08 10° N 05:21:05 12° NNE 05:23:01 10° NE visible
01 Oct 11.3 06:30:04 10° NNW 06:34:57 32° NE 06:39:47 10° ESE visible
02 Oct 11.7 05:59:17 10° NNW 06:03:49 26° NE 06:08:19 10° E visible
03 Oct 11.9 05:28:33 10° N 05:32:39 21° NE 05:36:42 10° E visible
04 Oct 12.1 04:57:52 10° N 05:01:25 17° NE 05:04:58 10° ENE visible
05 Oct 12.3 04:27:15 10° N 04:30:10 14° NNE 04:33:05 10° ENE visible
05 Oct 10.3 06:09:27 10° NNW 06:14:48 55° NE 06:20:07 10° SE visible
